Date String (YYYY-MM-DD hh:mm:ss) UTC,Instrument flags,absolute air pressure of the measurement (hPa),sample flow rate (lpm),inlet stack bypass flow (lpm),air temperature of the measurement (°C),ambient temperature measured by the external sensor (°C),aerosol sample conditioner tube jacket temperature (°C),OPC LED temperature (°C),internal box temperature (°C),relative humidity of the measurement (%),span deviation,mass concentration of particles derived from Lorenz-Mie calculation of OPC scattering (μg/m³),mass concentration of particles derived from Lorenz-Mie calculation of OPC scattering (μg/m³),mass concentration of particles derived from Lorenz-Mie calculation of OPC scattering (μg/m³)
DateTimeUTC,F1_M11,P_M11,Q1_M11,Q2_M11,T1_M11,T2_M11,T3_M11,T4_M11,T5_M11,U1_M11,ZSPAN_M11,X2_M11,X0_M11,X1_M11
2023-10-24 07:00:00,SystemResetWarning,0823.1,5.00,000.00,029.0,027.6,000.0,037.4,030.7,11.8,0000.0,0006.25,0018.21,0004.59
2023-10-24 07:01:00,SystemResetWarning,0823.1,5.01,000.00,029.0,027.7,000.0,037.4,030.7,11.8,0000.0,0006.27,0018.11,0004.59
2023-10-24 07:02:00,SystemResetWarning,0823.1,5.01,000.00,029.0,027.7,000.0,037.4,030.7,11.8,0000.0,0006.22,0018.52,0004.58
2023-10-24 07:03:00,SystemResetWarning,0823.1,5.01,000.00,029.0,027.7,000.0,037.4,030.7,11.9,0000.0,0006.13,0018.16,0004.56
2023-10-24 07:04:00,SystemResetWarning,0823.1,5.00,000.00,029.0,027.7,000.0,037.4,030.7,11.9,0000.0,0006.17,0017.90,0004.55
2023-10-24 07:05:00,SystemResetWarning,0823.1,5.00,000.00,029.0,027.7,000.0,037.4,030.7,11.8,0000.0,0006.16,0017.41,0004.54
2023-10-24 07:06:00,SystemResetWarning,0823.2,4.99,000.00,029.0,027.7,000.0,037.4,030.7,11.8,0000.0,0006.14,0017.02,0004.53
2023-10-24 07:07:00,SystemResetWarning,0823.2,4.99,000.00,029.1,027.7,000.0,037.5,030.7,11.9,0000.0,0006.05,0017.60,0004.52
2023-10-24 07:08:00,SystemResetWarning,0823.2,5.02,000.00,029.1,027.7,000.0,037.4,030.7,11.9,0000.0,0006.09,0018.56,0004.54
2023-10-24 07:09:00,SystemResetWarning,0823.3,5.01,000.00,029.0,027.7,000.0,037.5,030.7,11.9,0000.7,0006.08,0019.46,0004.55
2023-10-24 07:10:00,SystemResetWarning,0823.2,4.98,000.00,029.1,027.7,000.0,037.5,030.7,11.9,0000.7,0006.06,0019.32,0004.55
2023-10-24 07:11:00,SystemResetWarning,0823.2,5.01,000.00,029.1,027.7,000.0,037.5,030.7,12.0,0000.0,0006.09,0019.31,0004.53
2023-10-24 07:12:00,SystemResetWarning,0823.2,5.01,000.00,029.1,027.7,000.0,037.5,030.7,12.1,0000.0,0006.02,0019.91,0004.52
2023-10-24 07:13:00,SystemResetWarning,0823.2,4.99,000.00,029.1,027.7,000.0,037.5,030.7,12.2,0000.0,0006.00,0019.82,0004.52
2023-10-24 07:14:00,SystemResetWarning,0823.3,5.00,000.00,029.1,027.7,000.0,037.5,030.7,12.3,0000.0,0005.98,0019.61,0004.51
2023-10-24 07:15:00,SystemResetWarning,0823.3,5.01,000.00,029.1,027.7,000.0,037.5,030.7,12.3,0000.0,0005.92,0019.10,0004.49
2023-10-24 07:16:00,SystemResetWarning,0823.2,5.01,000.00,029.1,027.7,000.0,037.5,030.7,12.3,0000.0,0005.89,0018.35,0004.47
2023-10-24 07:17:00,SystemResetWarning,0823.3,4.99,000.00,029.1,027.7,000.0,037.5,030.7,12.3,0000.0,0005.87,0017.38,0004.46
2023-10-24 07:18:00,SystemResetWarning,0823.3,5.00,000.00,029.1,027.7,000.0,037.5,030.7,12.2,0000.0,0005.88,0016.11,0004.45
2023-10-24 07:19:00,SystemResetWarning,0823.3,5.00,000.00,029.1,027.7,000.0,037.5,030.7,12.1,0000.0,0005.83,0015.00,0004.43
2023-10-24 07:20:00,SystemResetWarning,0823.3,5.00,000.00,029.1,027.7,000.0,037.5,030.7,11.9,0000.0,0005.80,0014.13,0004.42
2023-10-24 07:21:00,SystemResetWarning,0823.3,5.00,000.00,029.1,027.7,000.0,037.5,030.7,12.1,0000.0,0005.79,0014.15,0004.40
2023-10-24 07:22:00,SystemResetWarning,0823.3,5.01,000.00,029.1,027.7,000.0,037.5,030.8,12.1,0000.0,0005.74,0014.61,0004.39
2023-10-24 07:23:00,SystemResetWarning,0823.3,5.01,000.00,029.1,027.7,000.0,037.5,030.8,12.2,0000.0,0005.75,0013.98,0004.38
2023-10-24 07:24:00,SystemResetWarning,0823.3,5.00,000.00,029.1,027.7,000.0,037.5,030.8,12.2,0000.0,0005.74,0014.45,0004.38
2023-10-24 07:25:00,SystemResetWarning,0823.3,4.99,000.00,029.1,027.8,000.0,037.6,030.8,12.2,0000.0,0005.77,0015.14,0004.37
2023-10-24 07:26:00,SystemResetWarning,0823.3,4.99,000.00,029.1,027.8,000.0,037.5,030.8,12.2,0000.0,0005.75,0015.95,0004.36
2023-10-24 07:27:00,SystemResetWarning,0823.3,4.99,000.00,029.1,027.8,000.0,037.6,030.8,12.2,0000.0,0005.73,0017.56,0004.36
2023-10-24 07:28:00,SystemResetWarning,0823.4,5.01,000.00,029.2,027.8,000.0,037.6,030.8,12.2,0000.0,0005.71,0018.02,0004.34
2023-10-24 07:29:00,SystemResetWarning,0823.4,5.01,000.00,029.2,027.8,000.0,037.6,030.8,12.1,0000.0,0005.70,0019.65,0004.34
2023-10-24 07:30:00,SystemResetWarning,0823.4,5.01,000.00,029.2,027.8,000.0,037.6,030.8,12.0,0000.0,0005.68,0019.49,0004.33
2023-10-24 07:31:00,SystemResetWarning,0823.4,5.00,000.00,029.2,027.8,000.0,037.6,030.8,12.0,0000.0,0005.65,0019.39,0004.31
2023-10-24 07:32:00,SystemResetWarning,0823.4,5.01,000.00,029.2,027.8,000.0,037.6,030.8,12.0,0000.0,0005.66,0019.67,0004.30
2023-10-24 07:33:00,SystemResetWarning,0823.4,4.99,000.00,029.2,027.8,000.0,037.6,030.8,12.1,0000.0,0005.62,0019.62,0004.28
2023-10-24 07:34:00,SystemResetWarning,0823.4,5.00,000.00,029.2,027.8,000.0,037.6,030.8,12.1,0000.0,0005.60,0019.37,0004.27
2023-10-24 07:35:00,SystemResetWarning,0823.5,5.00,000.00,029.2,027.8,000.0,037.6,030.8,12.1,0000.0,0005.62,0018.45,0004.27
2023-10-24 07:36:00,SystemResetWarning,0823.5,5.00,000.00,029.2,027.8,000.0,037.6,030.8,12.2,0000.0,0005.59,0018.59,0004.27
2023-10-24 07:37:00,SystemResetWarning,0823.5,5.00,000.00,029.2,027.8,000.0,037.6,030.8,12.1,0000.0,0005.59,0019.35,0004.27
2023-10-24 07:38:00,SystemResetWarning,0823.5,5.00,000.00,029.2,027.8,000.0,037.6,030.8,12.1,0000.0,0005.60,0018.77,0004.27
2023-10-24 07:39:00,SystemResetWarning,0823.5,5.00,000.00,029.2,027.8,000.0,037.6,030.9,12.1,0000.0,0005.63,0019.17,0004.28
2023-10-24 07:40:00,SystemResetWarning,0823.6,5.01,000.00,029.2,027.8,000.0,037.6,030.9,12.0,0000.0,0005.65,0017.93,0004.29
2023-10-24 07:41:00,SystemResetWarning,0823.5,5.01,000.00,029.2,027.8,000.0,037.6,030.9,12.0,0000.0,0005.65,0018.34,0004.29
2023-10-24 07:42:00,SystemResetWarning,0823.6,5.00,000.00,029.2,027.9,000.0,037.6,030.9,12.0,0000.0,0005.64,0017.81,0004.29
2023-10-24 07:43:00,SystemResetWarning,0823.6,5.00,000.00,029.2,027.9,000.0,037.7,030.9,12.1,0000.0,0005.60,0017.00,0004.28
2023-10-24 07:44:00,SystemResetWarning,0823.6,5.00,000.00,029.2,027.9,000.0,037.7,030.9,12.1,0000.0,0005.63,0016.42,0004.27
2023-10-24 07:45:00,SystemResetWarning,0823.7,5.00,000.00,029.3,027.9,000.0,037.7,030.9,12.1,0000.0,0005.61,0016.95,0004.24
2023-10-24 07:46:00,SystemResetWarning,0823.7,5.00,000.00,029.3,027.9,000.0,037.7,030.9,12.1,0000.0,0005.56,0017.25,0004.22
2023-10-24 07:47:00,SystemResetWarning,0823.8,5.00,000.00,029.3,027.9,000.0,037.7,030.9,12.1,0000.0,0005.56,0017.38,0004.21
2023-10-24 07:48:00,SystemResetWarning,0823.8,5.01,000.00,029.3,027.9,000.0,037.7,030.9,12.1,0000.0,0005.57,0015.93,0004.20
2023-10-24 07:49:00,SystemResetWarning,0823.8,5.00,000.00,029.3,027.9,000.0,037.7,030.9,12.1,0000.0,0005.58,0016.03,0004.20
2023-10-24 07:50:00,SystemResetWarning,0823.8,5.00,000.00,029.3,027.9,000.0,037.7,030.9,12.1,0000.0,0005.61,0016.07,0004.20
2023-10-24 07:51:00,SystemResetWarning,0823.8,4.99,000.00,029.3,027.9,000.0,037.7,030.9,12.1,0000.0,0005.60,0017.65,0004.19
2023-10-24 07:52:00,SystemResetWarning,0823.8,4.98,000.00,029.3,027.9,000.0,037.7,030.9,11.9,0000.0,0005.59,0017.19,0004.19
2023-10-24 07:53:00,SystemResetWarning,0823.8,5.00,000.00,029.3,026.8,000.0,037.7,030.8,12.1,0000.0,0005.65,0018.07,0004.19
2023-10-24 07:54:00,SystemResetWarning,0823.8,5.00,000.00,029.2,024.8,000.0,037.6,030.6,12.1,0000.0,0005.69,0018.45,0004.20
2023-10-24 07:55:00,SystemResetWarning,0823.8,5.00,000.00,029.1,024.4,000.0,037.5,030.4,12.1,0000.0,0005.70,0019.17,0004.23
2023-10-24 07:56:00,SystemResetWarning,0823.8,5.01,000.00,028.9,024.6,000.0,037.5,030.1,12.2,0000.0,0005.63,0019.08,0004.23
2023-10-24 07:57:00,SystemResetWarning,0823.9,5.00,000.00,028.8,024.9,000.0,037.5,030.1,12.3,0000.0,0005.65,0019.29,0004.24
2023-10-24 07:58:00,SystemResetWarning,0823.9,4.99,000.00,028.8,025.3,000.0,037.5,030.1,12.4,0000.0,0005.68,0018.64,0004.25
2023-10-24 07:59:00,SystemResetWarning,0824.0,5.00,000.00,028.7,025.7,000.0,037.4,030.1,12.4,0000.0,0005.71,0018.65,0004.27
